Wind_Speed
35 36 39 37 33 30 30 29 29 29 30 31 32 31 31 30 28 27 27 27 26 26 26 26 27 27 27 26 25 24 24 24 24 23 23 24 24 24 24 24 23 23
35 37 38 36 32 30 29 29 29 29 30 31 31 32 31 30 29 28 27 27 26 26 26 27 27 27 27 26 25 24 24 25 24 24 25 25 25 26 26 25 25 25
35 37 38 35 31 29 30 29 29 29 29 31 31 32 32 30 29 28 27 26 27 27 27 28 28 27 27 26 24 24 25 25 26 25 26 27 27 27 27 26 26 26
36 38 38 34 30 30 30 30 30 29 29 31 32 32 31 30 29 28 27 27 28 29 29 28 28 27 26 24 23 25 26 26 27 27 28 28 27 27 27 27 27 27
37 38 37 33 30 30 31 31 31 30 30 31 32 31 30 29 28 27 27 29 30 31 30 28 27 27 26 24 25 26 28 28 28 28 29 29 28 27 27 27 27 27
38 38 35 31 29 30 31 32 31 31 31 32 32 31 29 28 28 28 29 30 32 32 30 27 27 27 26 26 27 29 29 30 30 29 30 30 29 28 28 27 28 28
38 36 32 29 29 30 31 31 31 30 31 31 31 30 29 28 29 30 30 32 33 32 29 27 27 27 28 28 30 31 31 31 31 31 31 31 30 29 28 28 28 28
36 33 30 28 29 30 31 31 30 30 30 31 31 30 29 29 30 31 32 33 33 31 28 26 27 28 29 31 32 33 33 32 32 31 31 31 30 30 29 28 28 29
33 30 28 28 28 29 30 30 30 30 30 31 31 31 30 31 31 32 33 33 32 30 27 26 28 30 32 33 34 34 34 33 32 32 31 31 30 30 29 28 28 28
30 28 27 27 27 28 29 29 30 30 30 31 32 31 31 32 32 33 33 33 31 29 28 28 30 32 34 35 35 34 34 34 33 32 31 31 30 30 28 27 27 27
28 27 26 26 27 27 28 29 30 30 31 31 31 31 31 32 33 33 33 33 31 29 29 31 32 35 37 36 35 34 34 34 33 32 31 30 30 28 27 26 27 28
26 25 25 26 26 27 28 29 30 31 31 30 30 30 31 32 33 33 33 32 30 30 31 33 34 37 37 36 35 34 33 33 32 31 30 29 27 27 26 27 27 29
25 25 25 26 26 27 28 29 30 30 30 29 29 29 30 32 33 33 33 32 30 31 32 34 36 37 37 36 35 34 32 32 31 29 28 27 27 27 27 28 29 29
24 24 25 25 26 27 28 29 29 28 28 28 28 30 31 32 33 33 32 31 31 32 33 35 37 37 36 35 34 33 31 30 29 27 27 28 28 29 29 29 30 31
24 24 25 25 26 27 28 28 28 27 27 28 28 30 31 32 33 32 31 31 32 33 35 36 37 36 35 33 32 31 29 29 28 28 29 31 31 32 32 32 33 33
24 24 25 25 26 27 27 27 27 27 27 27 28 30 31 31 31 31 31 33 34 35 36 36 35 34 33 32 30 29 28 29 30 31 31 32 34 34 34 34 34 34
25 24 25 26 26 27 27 27 27 27 27 27 28 29 30 30 31 31 32 34 35 36 36 35 34 33 31 30 28 26 25 27 29 30 30 32 34 35 35 35 35 35
24 25 26 27 27 27 27 27 27 27 27 28 28 29 29 30 31 33 34 35 35 36 35 34 33 32 30 29 28 25 24 25 27 28 30 32 34 35 36 36 37 37
25 26 27 27 27 27 28 28 27 27 27 28 29 29 30 31 32 33 34 34 34 35 34 34 33 31 29 28 28 26 22 23 26 29 31 32 34 35 36 37 37 37
25 27 27 28 27 28 28 28 28 28 28 28 29 29 30 31 32 33 33 33 33 33 34 33 32 30 29 28 28 26 22 22 26 29 31 33 34 35 36 36 36 35
26 27 28 28 28 28 28 28 28 28 28 28 29 30 31 32 32 33 33 33 32 32 33 33 32 30 28 28 27 25 23 23 26 29 31 33 34 34 34 34 33 32
27 28 28 28 28 28 29 29 28 28 29 29 30 31 31 32 32 32 33 33 32 32 33 33 32 29 27 27 27 25 22 23 26 29 30 31 32 32 31 31 30 29
27 28 29 28 28 29 29 29 29 29 29 29 30 32 32 32 33 33 33 33 33 32 32 33 32 29 27 26 25 23 21 23 26 27 28 30 30 29 29 29 28 28
27 28 28 28 28 29 29 29 29 29 29 29 30 32 33 33 33 33 33 33 32 31 31 31 31 28 25 24 24 22 20 21 24 25 26 28 29 28 28 27 28 27
27 27 28 28 28 28 28 29 29 29 29 29 30 32 33 33 33 33 33 32 31 31 29 29 30 28 24 22 22 21 18 18 21 24 27 28 28 28 27 27 27 27
27 27 27 27 28 28 28 29 29 29 30 30 30 31 32 33 33 32 33 32 30 29 29 28 28 26 23 21 20 19 16 16 20 24 26 27 27 26 27 28 28 28
Wind_Direction
313 316 319 316 311 311 312 311 308 304 302 302 303 305 306 304 302 300 298 296 293 292 292 292 293 293 293 292 292 294 295 296 298 301 303 302 303 304 304 304 304 302
310 314 316 313 310 311 311 310 306 301 299 300 301 303 304 303 301 298 296 295 295 295 294 294 294 294 294 292 291 294 296 296 297 300 302 302 303 303 302 303 301 299
310 313 316 313 311 311 311 309 305 301 299 299 300 301 301 300 300 297 296 297 299 299 297 295 295 296 296 294 293 295 297 298 299 301 302 301 301 300 300 299 297 296
310 314 315 312 310 310 309 308 306 302 300 299 300 301 299 298 298 297 298 301 303 302 299 297 295 297 297 296 297 298 300 301 301 302 301 299 299 298 297 296 295 293
310 312 312 309 307 307 307 307 306 303 301 300 301 300 298 297 297 299 301 303 304 303 300 297 296 298 299 298 299 301 303 303 302 301 300 298 298 297 296 295 293 292
308 310 308 306 305 305 305 305 305 303 301 301 301 300 298 297 298 300 301 302 302 302 299 297 298 301 301 300 301 302 303 303 302 301 300 299 299 298 297 296 294 293
307 307 305 303 303 302 302 303 303 301 301 300 300 299 299 299 299 299 300 301 301 300 298 298 299 301 302 302 302 302 302 302 301 300 299 299 299 299 298 298 295 294
305 304 303 302 301 301 301 301 301 300 300 299 300 301 300 299 298 298 299 300 299 298 296 297 299 301 303 303 302 301 300 300 299 299 298 298 299 299 299 298 295 293
303 302 302 301 299 299 299 300 300 300 300 300 300 301 299 297 297 298 299 299 298 296 296 298 300 301 302 302 300 299 298 297 297 296 297 297 298 299 298 297 294 292
301 301 301 300 299 299 299 300 300 300 300 300 299 298 297 296 296 297 298 299 298 296 296 298 299 300 301 300 298 296 295 295 295 295 295 297 297 297 296 295 293 292
301 302 301 300 299 299 299 300 300 299 298 297 297 296 295 295 296 297 299 299 297 295 295 296 297 298 299 298 296 294 294 294 294 294 295 296 295 294 293 292 292 291
300 300 299 299 299 299 300 300 299 298 296 295 295 294 294 295 296 298 300 300 297 294 293 293 295 297 298 296 294 293 293 293 293 295 295 294 293 292 291 290 290 290
299 299 298 298 298 299 299 298 297 296 295 294 294 294 294 295 297 298 299 299 296 293 292 293 295 297 296 294 293 293 293 294 295 296 294 292 291 290 291 290 289 289
298 298 298 299 299 299 298 298 297 296 295 295 295 295 295 295 297 297 297 296 295 294 294 294 295 296 294 293 292 293 294 295 295 294 293 292 292 292 292 291 290 289
296 298 299 300 299 299 299 299 298 297 296 296 295 294 294 295 295 296 296 296 296 296 295 295 294 293 293 292 293 295 297 298 297 296 297 297 298 298 297 295 293 292
296 298 299 299 300 300 301 300 299 298 297 295 294 294 294 295 295 295 296 296 297 296 295 294 293 292 292 293 294 297 299 299 297 298 299 299 299 299 298 296 294 293
297 299 299 300 301 302 303 302 300 298 297 296 295 295 294 295 295 295 296 296 296 295 294 293 292 292 293 295 296 295 294 294 293 294 294 295 296 295 294 292 291 291
298 299 299 301 304 305 305 304 301 299 298 298 297 296 295 295 295 295 295 295 294 294 293 293 293 293 295 296 295 293 289 288 289 290 291 291 292 290 289 288 289 290
299 299 300 303 305 306 305 304 302 301 300 299 298 298 297 296 295 295 294 294 294 294 294 294 293 295 297 296 294 292 290 286 285 288 288 287 286 285 285 285 287 289
299 299 301 304 305 306 305 304 303 302 301 301 300 299 298 296 295 294 294 294 295 294 295 294 294 297 299 297 295 294 292 287 285 286 285 283 282 282 282 284 286 288
298 299 302 305 306 306 305 304 304 303 303 303 301 299 298 296 295 295 295 295 295 295 295 295 297 299 299 297 294 292 290 286 284 283 281 280 280 280 282 284 286 287
299 301 303 305 307 306 305 305 305 304 303 303 301 299 298 297 296 296 296 297 297 297 297 297 298 299 298 295 292 290 288 286 285 284 282 281 281 282 283 284 284 285
300 302 304 306 307 306 305 305 305 304 304 303 302 299 298 298 297 297 297 297 298 298 298 297 297 297 297 294 291 289 289 288 287 286 285 284 284 285 285 284 283 283
301 303 305 307 307 306 306 305 304 304 303 302 301 299 298 298 297 297 297 297 298 297 297 296 296 296 297 295 291 289 288 287 288 289 288 288 289 289 288 286 285 284
302 304 306 307 306 306 306 305 304 304 303 301 300 298 298 297 297 297 297 297 297 297 296 297 296 296 297 296 291 288 286 286 289 292 291 291 291 292 291 289 289 290
304 305 306 306 305 305 305 304 303 303 302 301 300 299 298 298 297 297 297 297 297 297 296 297 298 297 297 296 292 288 285 286 291 292 292 293 293 294 294 295 295 295
Height
1524 1522 1520 1518 1516 1514 1512 1511 1509 1508 1506 1505 1504 1502 1500 1499 1497 1496 1494 1493 1491 1490 1488 1487 1485 1484 1482 1481 1480 1478 1477 1475 1474 1473 1472 1471 1469 1468 1467 1466 1465 1464
1521 1519 1517 1515 1512 1511 1509 1508 1506 1505 1503 1502 1501 1499 1497 1496 1494 1493 1491 1489 1488 1486 1485 1483 1482 1480 1479 1478 1476 1475 1473 1472 1471 1470 1469 1467 1466 1465 1463 1463 1462 1461
1517 1515 1513 1510 1508 1507 1505 1504 1503 1501 1500 1499 1497 1496 1494 1492 1490 1489 1488 1486 1484 1483 1481 1480 1478 1477 1475 1474 1473 1471 1470 1469 1467 1467 1465 1463 1463 1461 1460 1459 1458 1457
1512 1511 1509 1507 1505 1503 1502 1501 1499 1498 1497 1495 1494 1492 1490 1489 1487 1485 1484 1482 1481 1479 1478 1476 1475 1473 1472 1471 1469 1468 1467 1465 1464 1463 1461 1460 1459 1458 1456 1455 1454 1453
1508 1507 1505 1503 1502 1500 1499 1497 1495 1494 1493 1491 1490 1488 1486 1485 1483 1482 1480 1479 1477 1475 1474 1472 1471 1470 1468 1467 1466 1464 1463 1462 1461 1460 1457 1456 1455 1454 1453 1452 1450 1449
1505 1503 1501 1500 1498 1497 1495 1493 1492 1491 1489 1487 1486 1484 1483 1481 1479 1478 1477 1475 1474 1472 1470 1469 1468 1466 1465 1464 1462 1461 1459 1458 1457 1456 1453 1452 1451 1450 1449 1447 1446 1445
1501 1500 1498 1496 1495 1493 1492 1490 1488 1487 1485 1483 1482 1480 1479 1477 1476 1475 1473 1472 1470 1468 1467 1465 1464 1463 1461 1460 1458 1456 1455 1454 1453 1451 1449 1448 1446 1445 1444 1443 1442 1440
1497 1496 1494 1492 1491 1489 1488 1486 1484 1483 1481 1480 1478 1476 1475 1473 1472 1471 1469 1468 1466 1464 1463 1462 1460 1459 1458 1456 1454 1452 1451 1450 1448 1447 1445 1443 1442 1441 1440 1439 1437 1436
1493 1492 1490 1488 1487 1485 1483 1482 1480 1479 1477 1475 1474 1472 1471 1470 1468 1467 1465 1464 1462 1460 1459 1458 1457 1455 1454 1452 1450 1448 1447 1445 1444 1443 1441 1439 1438 1436 1435 1434 1433 1431
1489 1487 1486 1484 1482 1481 1479 1478 1476 1475 1473 1471 1470 1468 1467 1466 1464 1463 1461 1460 1458 1456 1455 1454 1453 1451 1450 1448 1446 1444 1442 1441 1439 1438 1437 1435 1433 1432 1431 1430 1429 1427
1485 1483 1482 1480 1478 1477 1475 1474 1472 1470 1469 1467 1466 1464 1463 1462 1460 1459 1457 1455 1454 1452 1451 1450 1448 1447 1445 1443 1441 1440 1438 1436 1435 1433 1432 1431 1429 1428 1427 1426 1424 1423
1481 1479 1478 1476 1474 1473 1471 1469 1468 1466 1465 1463 1462 1460 1459 1457 1456 1454 1453 1451 1450 1448 1447 1446 1444 1442 1440 1438 1437 1435 1434 1432 1430 1429 1427 1426 1424 1423 1422 1421 1420 1419
1477 1475 1474 1472 1470 1468 1467 1465 1464 1462 1460 1459 1457 1456 1454 1453 1451 1450 1448 1447 1445 1444 1443 1441 1440 1438 1436 1434 1432 1430 1429 1427 1425 1424 1422 1421 1420 1419 1418 1417 1415 1414
1473 1471 1470 1468 1466 1464 1463 1461 1459 1458 1456 1454 1453 1451 1450 1449 1447 1445 1444 1442 1441 1440 1438 1437 1435 1433 1431 1429 1427 1426 1424 1422 1421 1419 1418 1416 1415 1414 1413 1412 1410 1409
1469 1467 1465 1464 1462 1460 1458 1457 1455 1453 1452 1450 1449 1447 1445 1444 1443 1441 1439 1438 1437 1435 1434 1432 1430 1428 1426 1425 1423 1421 1419 1418 1416 1414 1412 1411 1410 1408 1407 1406 1405 1403
1465 1463 1461 1460 1458 1456 1454 1452 1450 1449 1447 1446 1444 1443 1441 1440 1438 1437 1435 1433 1432 1430 1428 1427 1425 1423 1422 1420 1419 1417 1415 1413 1411 1409 1408 1406 1405 1403 1401 1400 1399 1398
1460 1459 1457 1455 1454 1452 1450 1448 1446 1444 1443 1441 1440 1438 1437 1435 1433 1432 1430 1428 1427 1425 1423 1421 1419 1418 1417 1416 1414 1414 1412 1410 1407 1406 1405 1403 1400 1399 1397 1395 1394 1393
1456 1454 1452 1451 1449 1447 1445 1444 1442 1440 1438 1437 1435 1434 1432 1430 1429 1427 1425 1423 1422 1419 1417 1416 1414 1413 1412 1411 1409 1409 1408 1406 1404 1402 1400 1398 1396 1394 1392 1390 1389 1388
1451 1450 1448 1446 1445 1443 1441 1439 1437 1435 1434 1432 1430 1429 1427 1425 1423 1422 1420 1418 1416 1414 1412 1410 1409 1408 1407 1406 1404 1403 1403 1402 1400 1397 1394 1392 1390 1389 1387 1386 1384 1383
1447 1445 1444 1442 1441 1439 1437 1435 1433 1431 1429 1428 1426 1424 1422 1420 1418 1417 1415 1413 1411 1409 1407 1405 1404 1403 1402 1401 1399 1398 1398 1397 1395 1392 1389 1387 1385 1384 1382 1381 1380 1379
1443 1441 1439 1438 1436 1434 1432 1430 1428 1426 1425 1423 1421 1419 1417 1415 1414 1411 1410 1408 1407 1405 1402 1400 1399 1398 1397 1395 1394 1393 1393 1392 1389 1386 1384 1382 1380 1379 1378 1377 1375 1374
1439 1437 1435 1433 1432 1430 1428 1426 1424 1422 1420 1419 1416 1414 1412 1410 1408 1407 1405 1403 1401 1399 1397 1394 1393 1393 1392 1390 1389 1388 1388 1386 1383 1381 1379 1377 1376 1375 1374 1373 1371 1370
1435 1433 1431 1429 1427 1425 1423 1421 1420 1418 1416 1414 1412 1409 1407 1405 1403 1402 1400 1398 1396 1394 1392 1389 1388 1388 1388 1386 1384 1383 1383 1381 1378 1376 1374 1372 1371 1370 1369 1368 1367 1366
1431 1429 1427 1425 1423 1421 1419 1417 1415 1413 1411 1410 1407 1405 1403 1401 1399 1397 1395 1393 1391 1389 1387 1385 1383 1383 1383 1381 1379 1379 1378 1377 1374 1372 1370 1368 1366 1365 1365 1364 1362 1361
1427 1425 1423 1421 1419 1417 1415 1413 1411 1409 1407 1405 1403 1400 1398 1396 1394 1392 1390 1388 1386 1384 1383 1381 1378 1377 1378 1376 1374 1374 1374 1373 1370 1368 1365 1363 1362 1361 1360 1358 1357 1356
1423 1421 1419 1417 1415 1412 1411 1409 1406 1405 1403 1401 1399 1396 1393 1391 1389 1387 1384 1383 1382 1380 1378 1376 1374 1373 1372 1371 1370 1369 1369 1369 1367 1364 1362 1360 1358 1356 1355 1353 1352 1351